LNK146 FAOR-FALE

Flight info

Callsign LNK146
Flight time 0h 52m
Altitude 33000
Route APDAK1D APDAK UQ48 APMAT APMAT1A
Aircraft A35K/H-SDE2E3GHIJ3J4J5LM1ORWXY/LB1D1

Departure

Time 2026-05-08 02:15
Airport O.R. Tambo International Airport (FAOR)

Arrival

Time 2026-05-08 03:07
Airport King Shaka International Airport (FALE)
Time Latitude Longitude Altitude Speed Heading
2026-05-08 01:57 -26.12892 28.23403 5553 ft 0 kts 186°
2026-05-08 02:04 -26.12891 28.23403 5552 ft 1 kts 186°
2026-05-08 02:04 -26.12870 28.23405 5555 ft 4 kts 167°
2026-05-08 02:04 -26.12852 28.23391 5552 ft 4 kts 109°
2026-05-08 02:05 -26.12846 28.23362 5555 ft 4 kts 96°
2026-05-08 02:05 -26.12845 28.23352 5556 ft 0 kts 96°
2026-05-08 02:08 -26.12847 28.23365 5554 ft 3 kts 96°
2026-05-08 02:08 -26.12846 28.23432 5552 ft 16 kts 81°
2026-05-08 02:08 -26.12831 28.23562 5556 ft 18 kts 85°
2026-05-08 02:08 -26.12830 28.23704 5555 ft 19 kts 95°
2026-05-08 02:09 -26.12769 28.23817 5552 ft 19 kts 17°
2026-05-08 02:09 -26.12637 28.23857 5553 ft 21 kts 15°
2026-05-08 02:09 -26.12486 28.23902 5550 ft 24 kts 14°
2026-05-08 02:09 -26.12320 28.23950 5547 ft 26 kts 15°
2026-05-08 02:10 -26.12137 28.24004 5546 ft 28 kts 14°
2026-05-08 02:10 -26.11940 28.24062 5540 ft 31 kts 14°
2026-05-08 02:10 -26.11727 28.24138 5532 ft 33 kts 18°
2026-05-08 02:10 -26.11506 28.24205 5530 ft 33 kts 14°
2026-05-08 02:11 -26.11279 28.24272 5528 ft 35 kts 15°
2026-05-08 02:11 -26.11041 28.24348 5520 ft 37 kts 17°
2026-05-08 02:11 -26.10813 28.24400 5515 ft 10 kts 22°
2026-05-08 02:11 -26.10805 28.24405 5515 ft 0 kts 34°
2026-05-08 02:12 -26.10797 28.24412 5515 ft 4 kts 38°
2026-05-08 02:13 -26.10784 28.24459 5514 ft 8 kts 92°
2026-05-08 02:13 -26.10785 28.24473 5514 ft 2 kts 95°
2026-05-08 02:13 -26.10790 28.24508 5514 ft 7 kts 98°
2026-05-08 02:13 -26.10802 28.24570 5514 ft 9 kts 115°
2026-05-08 02:14 -26.10861 28.24597 5514 ft 10 kts 181°
2026-05-08 02:14 -26.10946 28.24576 5516 ft 27 kts 195°
2026-05-08 02:14 -26.11421 28.24412 5532 ft 115 kts 198°
2026-05-08 02:14 -26.12454 28.24094 5613 ft 185 kts 195°
2026-05-08 02:15 -26.13751 28.23709 6571 ft 197 kts 195°
2026-05-08 02:15 -26.15151 28.23278 7069 ft 223 kts 196°
2026-05-08 02:15 -26.16723 28.22790 7506 ft 249 kts 197°
2026-05-08 02:15 -26.18449 28.22254 8206 ft 262 kts 197°
2026-05-08 02:16 -26.20229 28.21703 9216 ft 268 kts 198°
2026-05-08 02:16 -26.22064 28.21134 10205 ft 276 kts 199°
2026-05-08 02:16 -26.23935 28.20563 11107 ft 282 kts 198°
2026-05-08 02:16 -26.25887 28.20301 12053 ft 291 kts 182°
2026-05-08 02:17 -26.27893 28.20844 13027 ft 306 kts 159°
2026-05-08 02:17 -26.29629 28.22310 13879 ft 324 kts 134°
2026-05-08 02:17 -26.29871 28.22649 14032 ft 328 kts 129°
2026-05-08 02:17 -26.30644 28.24304 14557 ft 338 kts 111°
2026-05-08 02:18 -26.31320 28.26853 15346 ft 346 kts 106°
2026-05-08 02:18 -26.31935 28.29466 16130 ft 351 kts 106°
2026-05-08 02:18 -26.32571 28.32123 16916 ft 357 kts 106°
2026-05-08 02:18 -26.33222 28.34787 17707 ft 362 kts 106°
2026-05-08 02:19 -26.33895 28.37511 18486 ft 368 kts 106°
2026-05-08 02:19 -26.34586 28.40290 19127 ft 375 kts 106°
2026-05-08 02:19 -26.35300 28.43155 19512 ft 392 kts 106°
2026-05-08 02:19 -26.36051 28.46163 19799 ft 411 kts 106°
2026-05-08 02:20 -26.36835 28.49303 20107 ft 429 kts 105°
2026-05-08 02:20 -26.37639 28.52526 20435 ft 444 kts 105°
2026-05-08 02:20 -26.38478 28.55891 20955 ft 454 kts 105°
2026-05-08 02:20 -26.39331 28.59316 21589 ft 461 kts 105°
2026-05-08 02:21 -26.40195 28.62787 22228 ft 467 kts 105°
2026-05-08 02:21 -26.41071 28.66314 22878 ft 474 kts 105°
2026-05-08 02:21 -26.41950 28.69852 23504 ft 481 kts 105°
2026-05-08 02:21 -26.42846 28.73465 24107 ft 487 kts 105°
2026-05-08 02:22 -26.43756 28.77138 24696 ft 492 kts 105°
2026-05-08 02:22 -26.44672 28.80842 25273 ft 498 kts 105°
2026-05-08 02:22 -26.45676 28.84567 25825 ft 504 kts 110°
2026-05-08 02:22 -26.47124 28.88158 26397 ft 507 kts 119°
2026-05-08 02:23 -26.48787 28.91658 26961 ft 512 kts 120°
2026-05-08 02:23 -26.50469 28.95140 27519 ft 518 kts 120°
2026-05-08 02:23 -26.52187 28.98709 28068 ft 523 kts 120°
2026-05-08 02:23 -26.53934 29.02298 28628 ft 527 kts 122°
2026-05-08 02:24 -26.56021 29.05666 29155 ft 527 kts 135°
2026-05-08 02:24 -26.58495 29.08691 29803 ft 526 kts 139°
2026-05-08 02:24 -26.61065 29.11597 30592 ft 524 kts 140°
2026-05-08 02:24 -26.63674 29.14450 31179 ft 524 kts 141°
2026-05-08 02:25 -26.66292 29.17287 31763 ft 524 kts 141°
2026-05-08 02:25 -26.68907 29.20128 32366 ft 524 kts 141°
2026-05-08 02:25 -26.71479 29.22941 32909 ft 525 kts 141°
2026-05-08 02:25 -26.74091 29.25817 33143 ft 525 kts 141°
2026-05-08 02:26 -26.79285 29.31578 33175 ft 526 kts 141°
2026-05-08 02:26 -26.84459 29.37340 33176 ft 527 kts 141°
2026-05-08 02:27 -26.89662 29.43137 33163 ft 527 kts 140°
2026-05-08 02:27 -26.95358 29.48231 33155 ft 526 kts 151°
2026-05-08 02:28 -27.01440 29.53025 33153 ft 539 kts 152°
2026-05-08 02:28 -27.07595 29.57806 33155 ft 542 kts 152°
2026-05-08 02:29 -27.13804 29.62653 33135 ft 542 kts 152°
2026-05-08 02:29 -27.20002 29.67512 33133 ft 542 kts 152°
2026-05-08 02:30 -27.26152 29.72343 33170 ft 542 kts 152°
2026-05-08 02:30 -27.32347 29.77216 33121 ft 543 kts 152°
2026-05-08 02:31 -27.38549 29.82100 33124 ft 543 kts 152°
2026-05-08 02:31 -27.44700 29.86955 33108 ft 543 kts 152°
2026-05-08 02:32 -27.50894 29.91844 33117 ft 543 kts 152°
2026-05-08 02:32 -27.57101 29.96751 33101 ft 544 kts 152°
2026-05-08 02:33 -27.63269 30.01636 33102 ft 544 kts 152°
2026-05-08 02:33 -27.69441 30.06531 33090 ft 544 kts 152°
2026-05-08 02:34 -27.75655 30.11481 32955 ft 544 kts 151°
2026-05-08 02:34 -27.78750 30.13954 32390 ft 543 kts 151°
2026-05-08 02:34 -27.81786 30.16382 31954 ft 539 kts 151°
2026-05-08 02:35 -27.84838 30.18826 31540 ft 535 kts 151°
2026-05-08 02:35 -27.87861 30.21247 31166 ft 531 kts 150°
2026-05-08 02:35 -27.90874 30.23660 30842 ft 527 kts 150°
2026-05-08 02:35 -27.93867 30.26058 30562 ft 524 kts 150°
2026-05-08 02:36 -27.96803 30.28409 30258 ft 522 kts 150°
2026-05-08 02:36 -27.99758 30.30779 29923 ft 519 kts 150°
2026-05-08 02:36 -28.02699 30.33138 29559 ft 516 kts 150°
2026-05-08 02:36 -28.05623 30.35486 29198 ft 513 kts 150°
2026-05-08 02:37 -28.08526 30.37819 28858 ft 510 kts 150°
2026-05-08 02:37 -28.11411 30.40138 28495 ft 506 kts 150°
2026-05-08 02:37 -28.14281 30.42448 28187 ft 503 kts 150°
2026-05-08 02:37 -28.17103 30.44720 27865 ft 501 kts 150°
2026-05-08 02:38 -28.19939 30.47006 27524 ft 498 kts 150°
2026-05-08 02:38 -28.22758 30.49278 27195 ft 495 kts 150°
2026-05-08 02:38 -28.24612 30.50774 27033 ft 492 kts 150°
2026-05-08 02:38 -28.27403 30.53026 26973 ft 491 kts 150°
2026-05-08 02:39 -28.31092 30.56004 26923 ft 489 kts 150°
2026-05-08 02:39 -28.33860 30.58241 26349 ft 488 kts 150°
2026-05-08 02:39 -28.35689 30.59720 26099 ft 484 kts 149°
2026-05-08 02:39 -28.38417 30.61933 25726 ft 478 kts 149°
2026-05-08 02:40 -28.41113 30.64120 25294 ft 473 kts 149°
2026-05-08 02:40 -28.43777 30.66282 24950 ft 465 kts 149°
2026-05-08 02:40 -28.46379 30.68398 24756 ft 454 kts 149°
2026-05-08 02:40 -28.48903 30.70452 24591 ft 443 kts 149°
2026-05-08 02:41 -28.51381 30.72469 24433 ft 432 kts 149°
2026-05-08 02:41 -28.54576 30.75069 24217 ft 418 kts 150°
2026-05-08 02:41 -28.56164 30.76361 24115 ft 412 kts 150°
2026-05-08 02:41 -28.58476 30.78244 23853 ft 406 kts 150°
2026-05-08 02:42 -28.60763 30.80103 23487 ft 402 kts 150°
2026-05-08 02:42 -28.63028 30.81946 23078 ft 398 kts 150°
2026-05-08 02:42 -28.65277 30.83778 22661 ft 395 kts 149°
2026-05-08 02:42 -28.67475 30.85572 22269 ft 392 kts 149°
2026-05-08 02:43 -28.69690 30.87377 21788 ft 389 kts 150°
2026-05-08 02:43 -28.71874 30.89161 21429 ft 385 kts 149°
2026-05-08 02:43 -28.74051 30.90942 21031 ft 382 kts 149°
2026-05-08 02:43 -28.76170 30.92676 20630 ft 378 kts 149°
2026-05-08 02:44 -28.78331 30.94372 20233 ft 372 kts 155°
2026-05-08 02:44 -28.80679 30.95450 19827 ft 358 kts 172°
2026-05-08 02:44 -28.83088 30.96109 19393 ft 354 kts 174°
2026-05-08 02:44 -28.85485 30.96717 19001 ft 351 kts 174°
2026-05-08 02:45 -28.87858 30.97326 18644 ft 348 kts 174°
2026-05-08 02:45 -28.90209 30.97933 18245 ft 346 kts 174°
2026-05-08 02:45 -28.92552 30.98541 17802 ft 343 kts 174°
2026-05-08 02:45 -28.94850 30.99139 17420 ft 339 kts 173°
2026-05-08 02:46 -28.97143 30.99732 17010 ft 336 kts 173°
2026-05-08 02:46 -28.99419 31.00322 16619 ft 333 kts 173°
2026-05-08 02:46 -29.01674 31.00916 16214 ft 331 kts 173°
2026-05-08 02:46 -29.03881 31.01496 15894 ft 327 kts 172°
2026-05-08 02:47 -29.06100 31.02079 15668 ft 327 kts 172°
2026-05-08 02:47 -29.08330 31.02664 15267 ft 326 kts 172°
2026-05-08 02:47 -29.10507 31.03239 15081 ft 315 kts 172°
2026-05-08 02:47 -29.12612 31.03798 14925 ft 304 kts 172°
2026-05-08 02:48 -29.14611 31.04330 14775 ft 294 kts 172°
2026-05-08 02:48 -29.16571 31.04845 14640 ft 283 kts 172°
2026-05-08 02:48 -29.18465 31.05342 14487 ft 274 kts 173°
2026-05-08 02:48 -29.20304 31.05823 14252 ft 268 kts 172°
2026-05-08 02:49 -29.22110 31.06295 13936 ft 265 kts 172°
2026-05-08 02:49 -29.23903 31.06762 13524 ft 263 kts 170°
2026-05-08 02:49 -29.25696 31.07230 13029 ft 265 kts 170°
2026-05-08 02:49 -29.27472 31.07697 12615 ft 264 kts 170°
2026-05-08 02:50 -29.29251 31.08166 12222 ft 262 kts 170°
2026-05-08 02:50 -29.31024 31.08633 11818 ft 260 kts 169°
2026-05-08 02:50 -29.32784 31.09097 11437 ft 259 kts 169°
2026-05-08 02:50 -29.34540 31.09561 11285 ft 258 kts 169°
2026-05-08 02:51 -29.36298 31.10024 11281 ft 259 kts 169°
2026-05-08 02:51 -29.38030 31.10481 11279 ft 258 kts 169°
2026-05-08 02:51 -29.39788 31.10944 11187 ft 259 kts 169°
2026-05-08 02:51 -29.41573 31.11399 10758 ft 262 kts 171°
2026-05-08 02:52 -29.43339 31.11408 10402 ft 250 kts 195°
2026-05-08 02:52 -29.44880 31.10563 9946 ft 245 kts 218°
2026-05-08 02:52 -29.46227 31.09409 9475 ft 243 kts 220°
2026-05-08 02:52 -29.47560 31.08220 9009 ft 242 kts 220°
2026-05-08 02:53 -29.48888 31.07045 8615 ft 238 kts 220°
2026-05-08 02:53 -29.50186 31.05903 8377 ft 235 kts 220°
2026-05-08 02:53 -29.51485 31.04765 8187 ft 234 kts 220°
2026-05-08 02:53 -29.52764 31.03646 8009 ft 234 kts 220°
2026-05-08 02:54 -29.54055 31.02517 7819 ft 233 kts 220°
2026-05-08 02:54 -29.55349 31.01387 7666 ft 232 kts 219°
2026-05-08 02:54 -29.56637 31.00263 7510 ft 232 kts 219°
2026-05-08 02:54 -29.57922 30.99142 7355 ft 231 kts 219°
2026-05-08 02:55 -29.59208 30.98022 7215 ft 231 kts 219°
2026-05-08 02:55 -29.61752 30.95801 6930 ft 230 kts 219°
2026-05-08 02:55 -29.63029 30.94684 6781 ft 230 kts 219°
2026-05-08 02:56 -29.64309 30.93565 6659 ft 230 kts 219°
2026-05-08 02:56 -29.65582 30.92453 6509 ft 226 kts 219°
2026-05-08 02:56 -29.66800 30.91390 6388 ft 212 kts 219°
2026-05-08 02:56 -29.67927 30.90406 6250 ft 200 kts 219°
2026-05-08 02:57 -29.69015 30.89453 6115 ft 195 kts 219°
2026-05-08 02:57 -29.70094 30.88507 5988 ft 196 kts 219°
2026-05-08 02:57 -29.71184 30.87553 5879 ft 197 kts 219°
2026-05-08 02:57 -29.72274 30.86598 5789 ft 196 kts 219°
2026-05-08 02:58 -29.73359 30.85647 5790 ft 196 kts 219°
2026-05-08 02:58 -29.74434 30.84713 5791 ft 196 kts 218°
2026-05-08 02:58 -29.75549 30.83797 5789 ft 196 kts 217°
2026-05-08 02:58 -29.76670 30.82891 5789 ft 196 kts 217°
2026-05-08 02:59 -29.77819 30.82040 5786 ft 198 kts 208°
2026-05-08 02:59 -29.79185 30.81856 5790 ft 202 kts 170°
2026-05-08 02:59 -29.80406 30.82644 5787 ft 211 kts 140°
2026-05-08 02:59 -29.81299 30.84014 5787 ft 215 kts 128°
2026-05-08 03:00 -29.82087 30.85460 5540 ft 210 kts 127°
2026-05-08 03:00 -29.82858 30.86911 5096 ft 214 kts 127°
2026-05-08 03:00 -29.83627 30.88356 4680 ft 214 kts 127°
2026-05-08 03:00 -29.84339 30.89861 4321 ft 214 kts 115°
2026-05-08 03:01 -29.84464 30.91555 4235 ft 213 kts 86°
2026-05-08 03:01 -29.83958 30.93141 4215 ft 214 kts 48°
2026-05-08 03:01 -29.82732 30.93993 4216 ft 204 kts 12°
2026-05-08 03:01 -29.81420 30.94610 4208 ft 207 kts 20°
2026-05-08 03:02 -29.80162 30.95430 4205 ft 209 kts 28°
2026-05-08 03:02 -29.78975 30.96393 4197 ft 208 kts 33°
2026-05-08 03:02 -29.77808 30.97388 4049 ft 207 kts 33°
2026-05-08 03:02 -29.76657 30.98391 3789 ft 206 kts 34°
2026-05-08 03:03 -29.75523 30.99388 3500 ft 204 kts 34°
2026-05-08 03:03 -29.74414 31.00355 3195 ft 199 kts 38°
2026-05-08 03:03 -29.73343 31.01293 2921 ft 187 kts 38°
2026-05-08 03:03 -29.72322 31.02189 2688 ft 184 kts 38°
2026-05-08 03:04 -29.71298 31.03085 2452 ft 184 kts 38°
2026-05-08 03:04 -29.70279 31.03977 2196 ft 184 kts 38°
2026-05-08 03:04 -29.69262 31.04868 1953 ft 183 kts 38°
2026-05-08 03:04 -29.68262 31.05743 1709 ft 183 kts 37°
2026-05-08 03:05 -29.67272 31.06608 1452 ft 173 kts 38°
2026-05-08 03:05 -29.66345 31.07420 1256 ft 162 kts 38°
2026-05-08 03:05 -29.65467 31.08188 1051 ft 157 kts 38°
2026-05-08 03:05 -29.64591 31.08954 831 ft 158 kts 39°
2026-05-08 03:06 -29.63715 31.09721 643 ft 158 kts 39°
2026-05-08 03:06 -29.62837 31.10479 404 ft 159 kts 38°
2026-05-08 03:06 -29.62007 31.11207 308 ft 127 kts 37°
2026-05-08 03:06 -29.61508 31.11638 307 ft 69 kts 38°
2026-05-08 03:07 -29.61183 31.11925 311 ft 39 kts 34°
2026-05-08 03:07 -29.60972 31.12037 309 ft 32 kts
2026-05-08 03:07 -29.60856 31.11994 311 ft 12 kts 289°
2026-05-08 03:07 -29.60889 31.11926 311 ft 10 kts 226°
2026-05-08 03:08 -29.60938 31.11887 311 ft 8 kts 212°
2026-05-08 03:08 -29.60977 31.11857 312 ft 7 kts 215°
2026-05-08 03:08 -29.61010 31.11829 313 ft 5 kts 217°
2026-05-08 03:08 -29.61038 31.11805 313 ft 5 kts 217°
2026-05-08 03:09 -29.61063 31.11783 312 ft 5 kts 217°
2026-05-08 03:09 -29.61103 31.11748 313 ft 17 kts 217°
2026-05-08 03:09 -29.61289 31.11584 313 ft 30 kts 218°
2026-05-08 03:09 -29.61454 31.11440 309 ft 30 kts 217°
2026-05-08 03:10 -29.61615 31.11301 305 ft 29 kts 216°
2026-05-08 03:10 -29.61756 31.11175 307 ft 16 kts 233°
2026-05-08 03:10 -29.61746 31.11066 307 ft 14 kts 301°
2026-05-08 03:10 -29.61686 31.10973 306 ft 14 kts 307°
2026-05-08 03:11 -29.61625 31.10880 307 ft 15 kts 307°
2026-05-08 03:11 -29.61563 31.10785 307 ft 15 kts 307°
2026-05-08 03:11 -29.61533 31.10675 304 ft 15 kts 259°
2026-05-08 03:11 -29.61590 31.10612 307 ft 5 kts 183°
2026-05-08 03:12 -29.61606 31.10626 306 ft 3 kts 140°
2026-05-08 03:12 -29.61626 31.10650 307 ft 5 kts 133°
2026-05-08 03:12 -29.61650 31.10683 307 ft 0 kts 127°
2026-05-08 03:12 -29.61655 31.10689 306 ft 2 kts 128°
2026-05-08 03:13 -29.61656 31.10692 306 ft 0 kts 128°